Change the Weather History Date:

Thursday, April 18, 2013

  Actual Average Record
Temperature  
Mean Temperature 72 °F -  
Max Temperature 80 °F 77 °F 91 °F (1967)
Min Temperature 66 °F 55 °F 39 °F (2001)
Cooling Degree Days 8    
Growing Degree Days 22 (Base 50)    
Moisture  
Dew Point 65 °F    
Average Humidity 78    
Maximum Humidity 93    
Minimum Humidity 57    
Precipitation  
Precipitation 0.00 in - - ()
Sea Level Pressure  
Sea Level Pressure 30.10 in    
Wind  
Wind Speed 5 mph (SE)    
Max Wind Speed 14 mph    
Max Gust Speed 21 mph    
Visibility 9 miles    
Events      
Averages and records for this station are not official NWS values.
T = Trace of Precipitation, MM = Missing Value Source: NWS Daily Summary

Daily Weather History Graph

Daily Weather History Graph

Search for Another Location

Airport or City:

Trip Planner

Search our weather history database for the weather conditions in past years. The results will help you decide how hot, cold, wet, or windy it might be!

Date:

Astronomy

Apr. 18, 2013 Rise Set
Actual Time 6:49 AM EDT 7:54 PM EDT
Civil Twilight 6:24 AM EDT 8:20 PM EDT
Nautical Twilight 5:54 AM EDT 8:50 PM EDT
Astronomical Twilight 5:23 AM EDT 9:21 PM EDT
Moon 1:03 PM EDT (4/18) 2:04 AM EDT (4/18)
Length of Visible Light 13h 56m
Length of Day
13h 05m
First Quarter, 51% of the Moon is Illuminated
Apr 18
First Quarter
Apr 25
Full
May 2
Last Quarter
May 9
New
May 18
First Quarter

Hourly Weather History & Observations

Time (EDT) Temp. Dew Point Humidity Pressure Visibility Wind Dir Wind Speed Gust Speed Precip Events Conditions
12:56 AM 68.0 °F 64.0 °F 87% 30.14 in 10.0 mi East 3.5 mph - N/A   Clear
1:56 AM 68.0 °F 64.0 °F 87% 30.12 in 10.0 mi East 3.5 mph - N/A   Clear
2:56 AM 68.0 °F 64.0 °F 87% 30.11 in 10.0 mi ESE 4.6 mph - N/A   Clear
3:56 AM 68.0 °F 64.9 °F 90% 30.09 in 10.0 mi SE 5.8 mph - N/A   Clear
4:56 AM 66.9 °F 64.0 °F 90% 30.08 in 10.0 mi Calm Calm - N/A   Clear
5:56 AM 68.0 °F 64.9 °F 90% 30.09 in 10.0 mi Variable 3.5 mph - N/A   Clear
6:56 AM 66.9 °F 64.9 °F 93% 30.12 in 5.0 mi Calm Calm - N/A   Mostly Cloudy
7:38 AM 68.0 °F 64.4 °F 88% 30.13 in 5.0 mi Calm Calm - N/A   Mostly Cloudy
7:56 AM 69.1 °F 66.0 °F 90% 30.14 in 5.0 mi Calm Calm - N/A   Mostly Cloudy
8:56 AM 70.0 °F 66.9 °F 90% 30.13 in 5.0 mi East 3.5 mph - N/A   Mostly Cloudy
9:03 AM 71.6 °F 66.2 °F 83% 30.13 in 5.0 mi East 3.5 mph - N/A   Mostly Cloudy
9:56 AM 73.9 °F 66.9 °F 79% 30.13 in 10.0 mi East 8.1 mph - N/A   Mostly Cloudy
10:27 AM 75.2 °F 66.2 °F 73% 30.14 in 10.0 mi SSE 4.6 mph - N/A   Mostly Cloudy
10:56 AM 75.9 °F 66.0 °F 71% 30.14 in 10.0 mi SSE 12.7 mph 16.1 mph N/A   Mostly Cloudy
11:56 AM 78.1 °F 64.9 °F 64% 30.13 in 10.0 mi SSE 10.4 mph 18.4 mph N/A   Mostly Cloudy
12:56 PM 79.0 °F 64.0 °F 60% 30.12 in - SSE 11.5 mph 20.7 mph N/A   Mostly Cloudy
1:03 PM 78.8 °F 62.6 °F 57% 30.12 in - SSE 12.7 mph - N/A   Partly Cloudy
1:56 PM 77.0 °F 63.0 °F 62% 30.11 in - SSE 13.8 mph - N/A   Mostly Cloudy
2:56 PM 78.1 °F 62.1 °F 58% 30.10 in - South 9.2 mph 18.4 mph N/A   Mostly Cloudy
3:56 PM 78.1 °F 63.0 °F 60% 30.08 in - SSE 9.2 mph - N/A   Mostly Cloudy
4:56 PM 77.0 °F 64.9 °F 66% 30.06 in - SSE 11.5 mph - N/A   Mostly Cloudy
5:56 PM 75.9 °F 64.0 °F 67% 30.06 in 10.0 mi SSE 11.5 mph - N/A   Mostly Cloudy
6:56 PM 75.0 °F 64.9 °F 71% 30.04 in 10.0 mi SE 11.5 mph - N/A   Mostly Cloudy
7:56 PM 73.9 °F 64.9 °F 73% 30.04 in 10.0 mi SE 10.4 mph - N/A   Mostly Cloudy
8:56 PM 71.1 °F 66.0 °F 84% 30.04 in 10.0 mi ESE 5.8 mph - N/A   Scattered Clouds
9:56 PM 69.1 °F 66.0 °F 90% 30.05 in 10.0 mi SE 4.6 mph - N/A   Partly Cloudy
10:56 PM 68.0 °F 64.9 °F 90% 30.05 in - Calm Calm - N/A   Clear
11:56 PM 71.1 °F 66.9 °F 87% 30.04 in - SSE 5.8 mph - N/A   Scattered Clouds